Change the Weather History Date:

Friday, October 18, 2013

  Actual Average Record
Temperature  
Mean Temperature 53 °F -  
Max Temperature 63 °F 65 °F 82 °F (2007)
Min Temperature 43 °F 42 °F 29 °F (1959)
Degree Days  
Heating Degree Days 12    
Growing Degree Days 3 (Base 50)    
Moisture  
Dew Point 45 °F    
Average Humidity 76    
Maximum Humidity 95    
Minimum Humidity 52    
Precipitation  
Precipitation 0.00 in - - ()
Sea Level Pressure  
Sea Level Pressure 30.00 in    
Wind  
Wind Speed 5 mph (West)    
Max Wind Speed 12 mph    
Max Gust Speed 18 mph    
Visibility 10 miles    
Events Rain    
Averages and records for this station are not official NWS values.
T = Trace of Precipitation, MM = Missing Value Source: NWS Daily Summary

Daily Weather History Graph

Daily Weather History Graph

Search for Another Location

Airport or City:

Trip Planner

Search our weather history database for the weather conditions in past years. The results will help you decide how hot, cold, wet, or windy it might be!

Date:

Astronomy

Oct. 18, 2013 Rise Set
Actual Time 7:08 AM CDT 6:12 PM CDT
Civil Twilight 6:41 AM CDT 6:39 PM CDT
Nautical Twilight 6:10 AM CDT 7:10 PM CDT
Astronomical Twilight 5:39 AM CDT 7:41 PM CDT
Moon 6:03 PM CDT (10/18) 6:43 AM CDT (10/18)
Length of Visible Light 11h 58m
Length of Day
11h 04m
Full, 100% of the Moon is Illuminated
Oct 18
Full
Oct 18
Full
Oct 26
Last Quarter
Nov 3
New
Nov 9
First Quarter

Hourly Weather History & Observations

Time (CDT) Temp. Windchill Dew Point Humidity Pressure Visibility Wind Dir Wind Speed Gust Speed Precip Events Conditions
12:15 AM 46.9 °F - 43.2 °F 87% 29.98 in 10.0 mi South 4.6 mph - N/A   Clear
12:35 AM 46.8 °F - 42.8 °F 86% 29.97 in 10.0 mi South 3.5 mph - N/A   Clear
12:55 AM 46.4 °F 44.3 °F 42.8 °F 87% 29.98 in 10.0 mi South 4.6 mph - N/A   Clear
1:15 AM 45.9 °F 44.6 °F 42.6 °F 88% 29.98 in 10.0 mi South 3.5 mph - N/A   Clear
1:35 AM 46.4 °F 45.2 °F 43.3 °F 89% 29.98 in 10.0 mi South 3.5 mph - N/A   Clear
1:55 AM 45.9 °F 44.6 °F 42.8 °F 89% 29.98 in 10.0 mi South 3.5 mph - N/A   Clear
2:15 AM 45.9 °F 44.6 °F 43.0 °F 90% 29.98 in 10.0 mi South 3.5 mph - N/A   Clear
2:35 AM 45.5 °F - 42.8 °F 90% 29.98 in 10.0 mi Calm Calm - N/A   Clear
2:55 AM 45.1 °F 43.7 °F 42.8 °F 91% 29.97 in 10.0 mi South 3.5 mph - N/A   Clear
3:15 AM 43.7 °F 42.1 °F 41.5 °F 92% 29.97 in 10.0 mi South 3.5 mph - N/A   Clear
3:35 AM 44.8 °F 43.3 °F 42.6 °F 92% 29.97 in 10.0 mi South 3.5 mph - N/A   Clear
3:55 AM 44.8 °F 43.3 °F 42.4 °F 91% 29.98 in 10.0 mi South 3.5 mph - N/A   Clear
4:15 AM 44.8 °F - 42.3 °F 91% 29.98 in 10.0 mi Calm Calm - N/A   Clear
4:35 AM 44.6 °F 43.1 °F 43.2 °F 95% 29.98 in 10.0 mi South 3.5 mph - N/A   Clear
4:55 AM 44.1 °F - 41.9 °F 92% 29.98 in 10.0 mi Calm Calm - N/A   Clear
5:15 AM 44.1 °F 42.5 °F 42.1 °F 93% 29.98 in 10.0 mi South 3.5 mph - N/A   Clear
5:35 AM 44.2 °F 41.8 °F 42.3 °F 93% 29.98 in 10.0 mi South 4.6 mph - N/A   Clear
5:55 AM 43.9 °F 41.3 °F 41.9 °F 93% 29.99 in 10.0 mi SSW 4.6 mph - N/A   Clear
6:15 AM 44.6 °F 42.2 °F 42.4 °F 92% 29.99 in 10.0 mi South 4.6 mph - N/A   Clear
6:35 AM 43.7 °F 41.1 °F 41.7 °F 93% 30.00 in 10.0 mi SSW 4.6 mph - N/A   Clear
6:55 AM 44.6 °F 42.2 °F 42.3 °F 91% 30.00 in 10.0 mi South 4.6 mph - N/A   Scattered Clouds
7:15 AM 43.9 °F - 41.9 °F 93% 30.00 in 10.0 mi Calm Calm - N/A   Scattered Clouds
7:35 AM 44.6 °F - 42.3 °F 91% 30.00 in 10.0 mi Calm Calm - N/A   Clear
7:55 AM 45.5 °F - 43.0 °F 91% 30.01 in 10.0 mi Calm Calm - N/A   Clear
8:15 AM 47.3 °F - 44.4 °F 90% 30.02 in 10.0 mi SW 3.5 mph - N/A   Clear
8:35 AM 49.5 °F - 45.9 °F 87% 30.03 in 10.0 mi WSW 6.9 mph - N/A   Clear
8:55 AM 50.9 °F - 46.8 °F 86% 30.03 in 10.0 mi West 8.1 mph - N/A   Clear
9:15 AM 52.0 °F - 47.3 °F 84% 30.03 in 10.0 mi West 8.1 mph - N/A   Clear
9:35 AM 52.7 °F - 47.3 °F 82% 30.04 in 10.0 mi West 10.4 mph - N/A   Clear
9:55 AM 53.8 °F - 47.8 °F 80% 30.05 in 10.0 mi West 9.2 mph - N/A   Clear
10:15 AM 54.1 °F - 46.8 °F 76% 30.04 in 10.0 mi West 8.1 mph - N/A   Clear
10:35 AM 55.0 °F - 46.9 °F 74% 30.04 in 10.0 mi WNW 6.9 mph - N/A   Clear
10:55 AM 56.3 °F - 46.4 °F 69% 30.04 in 10.0 mi West 9.2 mph - N/A   Clear
11:15 AM 56.8 °F - 46.8 °F 69% 30.04 in 10.0 mi West 5.8 mph - N/A   Clear
11:35 AM 57.9 °F - 46.9 °F 67% 30.03 in 10.0 mi West 6.9 mph - N/A   Clear
11:55 AM 58.6 °F - 46.9 °F 65% 30.03 in 10.0 mi West 8.1 mph - N/A   Clear
12:15 PM 59.7 °F - 47.3 °F 63% 30.03 in 10.0 mi WNW 10.4 mph - N/A   Clear
12:35 PM 60.1 °F - 46.9 °F 62% 30.02 in 10.0 mi West 10.4 mph - N/A   Clear
12:55 PM 60.8 °F - 47.1 °F 61% 30.02 in 10.0 mi West 9.2 mph - N/A   Clear
1:15 PM 61.2 °F - 46.9 °F 60% 30.01 in 10.0 mi West 11.5 mph - N/A   Clear
1:35 PM 62.1 °F - 47.1 °F 58% 30.00 in 10.0 mi West 6.9 mph - N/A   Clear
1:49 PM 62.6 °F - 46.4 °F 55% 29.99 in 10.0 mi West 8.1 mph - N/A   Clear
1:55 PM 62.8 °F - 46.8 °F 56% 29.99 in 10.0 mi West 11.5 mph - N/A   Clear
2:15 PM 63.1 °F - 46.9 °F 55% 29.98 in 10.0 mi West 10.4 mph 18.4 mph N/A   Clear
2:35 PM 62.2 °F - 46.6 °F 57% 29.98 in 10.0 mi NW 4.6 mph - N/A   Clear
2:55 PM 63.5 °F - 47.1 °F 55% 29.98 in 10.0 mi WSW 11.5 mph - N/A   Scattered Clouds
3:15 PM 63.5 °F - 46.4 °F 54% 29.98 in 10.0 mi West 8.1 mph 16.1 mph N/A   Clear
3:35 PM 63.3 °F - 46.4 °F 54% 29.97 in 10.0 mi WSW 8.1 mph - N/A   Clear
3:55 PM 63.3 °F - 46.4 °F 54% 29.97 in 10.0 mi WNW 9.2 mph 17.3 mph N/A   Clear
4:15 PM 62.8 °F - 45.0 °F 52% 29.97 in 10.0 mi WNW 8.1 mph - N/A   Clear
4:35 PM 62.4 °F - 45.3 °F 54% 29.97 in 10.0 mi WNW 8.1 mph - N/A   Clear
4:55 PM 61.7 °F - 45.1 °F 55% 29.97 in 10.0 mi NW 9.2 mph - N/A   Clear
5:15 PM 61.2 °F - 45.3 °F 56% 29.98 in 10.0 mi NW 8.1 mph - N/A   Clear
5:35 PM 60.3 °F - 44.8 °F 57% 29.98 in 10.0 mi WNW 5.8 mph - N/A   Clear
5:55 PM 58.5 °F - 44.4 °F 60% 29.99 in 10.0 mi WNW 6.9 mph - N/A   Clear
6:15 PM 57.0 °F - 44.6 °F 63% 30.00 in 10.0 mi West 5.8 mph - N/A   Clear
6:35 PM 55.6 °F - 44.1 °F 65% 30.00 in 10.0 mi West 4.6 mph - N/A   Clear
6:55 PM 54.5 °F - 44.2 °F 68% 30.01 in 10.0 mi WNW 6.9 mph - N/A   Clear
7:15 PM 54.9 °F - 44.1 °F 67% 30.01 in 10.0 mi WNW 4.6 mph - N/A   Clear
7:35 PM 54.1 °F - 44.2 °F 69% 30.01 in 10.0 mi NW 3.5 mph - N/A   Clear
7:55 PM 53.4 °F - 44.2 °F 71% 30.01 in 10.0 mi NW 4.6 mph - N/A   Clear
8:15 PM 52.0 °F - 44.2 °F 75% 30.01 in 10.0 mi NNW 4.6 mph - N/A   Clear
8:35 PM 50.0 °F - 43.7 °F 79% 30.01 in 10.0 mi NNW 4.6 mph - N/A   Clear
8:55 PM 49.6 °F - 44.4 °F 82% 30.01 in 10.0 mi North 5.8 mph - N/A   Scattered Clouds
9:15 PM 51.3 °F - 44.8 °F 78% 30.00 in 10.0 mi North 5.8 mph - N/A   Scattered Clouds
9:35 PM 51.4 °F - 44.2 °F 76% 30.01 in 10.0 mi NNW 4.6 mph - N/A   Clear
9:55 PM 51.8 °F - 44.1 °F 75% 30.01 in 10.0 mi NNW 5.8 mph - N/A   Scattered Clouds
10:15 PM 52.0 °F - 43.9 °F 74% 30.01 in 10.0 mi NNW 5.8 mph - N/A Rain Light Rain
10:35 PM 51.3 °F - 43.7 °F 75% 30.00 in 10.0 mi North 4.6 mph - N/A Rain Light Rain
10:55 PM 51.1 °F - 44.1 °F 77% 30.00 in 10.0 mi North 4.6 mph - N/A Rain Light Rain
11:15 PM 50.9 °F - 44.2 °F 78% 30.00 in 10.0 mi NNW 5.8 mph - N/A Rain Light Rain
11:35 PM 50.4 °F - 44.1 °F 79% 29.99 in 10.0 mi NNW 4.6 mph - N/A Rain Rain
11:55 PM 50.0 °F - 43.9 °F 79% 29.98 in 10.0 mi Calm Calm - N/A Rain Light Rain